FW3610 Weather Reports


time (UTC)temp
F
wind
direction
speed
knots
gust
knots
rain 1hr
in
rain 24hr
in
rain mn
in
humidity
%
barometer
mb
20260506124533 38 228 6.1 0.0 0.00 0.00 0.00 80 1008.1
20260506123032 37 239 6.1 0.0 0.00 0.00 0.00 82 1008.0
20260506121531 36 234 6.1 0.0 0.00 0.00 0.00 83 1007.6
20260506120036 36 232 6.1 0.0 0.00 0.00 0.00 83 1007.3
20260506114525 36 236 5.2 0.0 0.00 0.00 0.00 83 1007.1
20260506113026 37 248 5.2 0.0 0.00 0.00 0.00 81 1007.1
20260506111526 36 256 4.3 0.0 0.00 0.00 0.00 82 1007.0
20260506110021 34 271 2.6 0.0 0.00 0.00 0.00 86 1006.6
20260506104518 34 250 2.6 0.0 0.00 0.00 0.00 82 1006.5
20260506103017 37 231 4.3 0.0 0.00 0.00 0.00 79 1006.1
20260506101519 34 275 2.6 0.0 0.00 0.00 0.00 87 1006.2
20260506100028 35 282 1.7 0.0 0.00 0.00 0.00 84 1006.1
20260506094508 37 287 2.6 0.0 0.00 0.00 0.00 80 1006.1
20260506093005 40 271 4.3 0.0 0.00 0.00 0.00 76 1005.9
20260506091501 39 262 1.7 0.0 0.00 0.00 0.00 79 1005.6
20260506090057 42 275 3.5 0.0 0.00 0.00 0.00 75 1005.2
20260506084558 43 277 2.6 0.0 0.00 0.00 0.00 76 1005.5
20260506083058 44 277 5.2 0.0 0.00 0.00 0.00 72 1005.0
20260506081557 43 266 3.5 0.0 0.00 0.00 0.00 77 1004.9
20260506073049 42 306 0.9 0.0 0.00 0.00 0.00 82 1004.8
20260506071546 42 306 0.0 0.0 0.00 0.00 0.00 83 1004.9
20260506061537 44 328 4.3 0.0 0.00 0.00 0.00 79 1004.4
20260506044527 49 311 7.0 0.0 0.00 0.00 0.01 66 1003.5
20260506043024 50 323 7.0 0.0 0.00 0.00 0.01 62 1003.2
20260506041521 49 227 4.3 0.0 0.00 0.00 0.01 72 1002.8
20260506040033 49 234 5.2 0.0 0.00 0.00 0.01 74 1002.6
20260506034521 48 225 3.5 0.0 0.00 0.00 0.01 72 1002.4
20260506033017 46 223 4.3 0.0 0.00 0.00 0.01 74 1002.1
20260506031514 46 250 2.6 0.0 0.00 0.00 0.01 71 1002.1
20260506030013 48 250 4.3 0.0 0.00 0.00 0.01 65 1001.6
20260506024508 48 261 4.3 0.0 0.00 0.00 0.01 65 1001.3
20260506023006 50 253 6.1 0.0 0.00 0.00 0.01 61 1001.1
20260506021511 51 229 9.6 0.0 0.00 0.00 0.01 59 1000.9
20260506020004 53 246 5.2 0.0 0.00 0.00 0.01 60 1001.3
20260506014504 52 279 4.3 0.0 0.00 0.00 0.01 58 1000.0
20260506013005 53 298 6.1 0.0 0.00 0.00 0.01 55 999.3
20260506011504 56 294 7.8 0.0 0.00 0.00 0.01 50 999.2
20260506010003 64 310 8.7 0.0 0.00 0.00 0.01 41 999.0
20260506004502 64 285 9.6 0.0 0.00 0.00 0.01 40 998.9
20260506003001 66 296 8.7 0.0 0.00 0.00 0.01 39 998.7
20260506001600 65 286 10.4 0.0 0.00 0.00 0.01 40 998.6
20260505234610 67 343 10.4 0.0 0.00 0.00 0.01 40 998.7
20260505233058 68 287 11.3 0.0 0.00 0.00 0.01 40 998.5
20260505231558 67 324 12.2 0.0 0.00 0.00 0.01 40 998.3
20260505230056 68 295 13.0 0.0 0.00 0.00 0.01 41 998.4
20260505224557 67 297 14.8 0.0 0.00 0.00 0.01 41 998.3
20260505223055 69 319 15.6 0.0 0.00 0.00 0.01 39 998.7
20260505221555 67 332 8.7 0.0 0.00 0.00 0.01 40 998.5
20260505220054 72 315 9.6 0.0 0.00 0.00 0.01 32 998.0
20260505214622 73 286 10.4 0.0 0.00 0.00 0.01 33 998.0
20260505213102 73 316 13.9 0.0 0.00 0.00 0.01 33 998.2
20260505211552 72 298 15.6 0.0 0.00 0.00 0.01 31 998.4
20260505210056 70 308 18.2 0.0 0.00 0.00 0.01 35 998.6
20260505204557 73 287 8.7 0.0 0.00 0.00 0.01 37 998.5
20260505203054 64 257 10.4 0.0 0.00 0.00 0.01 58 999.3
20260505201553 65 300 13.9 0.0 0.00 0.00 0.01 42 998.7
20260505200100 73 242 14.8 0.0 0.00 0.00 0.01 30 998.9
20260505194549 77 234 13.0 0.0 0.00 0.00 0.01 29 998.9
20260505193048 74 231 13.9 0.0 0.00 0.00 0.01 33 999.3
20260505191542 72 215 13.0 0.0 0.00 0.00 0.01 35 999.6
20260505190040 72 188 13.0 0.0 0.00 0.00 0.01 37 999.8
20260505184539 71 237 12.2 0.0 0.00 0.00 0.01 39 1000.1
20260505183038 73 210 11.3 0.0 0.00 0.00 0.01 40 1000.0
20260505181540 74 222 11.3 0.0 0.00 0.00 0.01 39 1000.1
20260505180057 70 244 10.4 0.0 0.00 0.00 0.01 45 1000.2
20260505174553 66 238 8.7 0.0 0.00 0.00 0.01 50 1000.5
20260505173039 67 209 8.7 0.0 0.00 0.00 0.01 52 1000.6
20260505171530 60 213 7.8 0.0 0.00 0.00 0.01 66 1000.4
20260505170027 57 213 7.8 0.0 0.00 0.00 0.01 81 1000.6
20260505164526 55 219 7.0 0.0 0.00 0.00 0.01 84 1000.5
20260505163026 52 225 7.8 0.0 0.00 0.00 0.01 88 1000.6
20260505161525 50 216 7.8 0.0 0.00 0.00 0.01 89 1000.7
20260505153018 54 239 7.8 0.0 0.00 0.00 0.00 67 1000.2
20260505151516 55 246 8.7 0.0 0.00 0.00 0.00 58 1000.3